Regional Weather Roundup
Issued by NWS

Home | Current Version | Previous Version | Graphics & Text | Print | Product List | Glossary On
Versions: 1 2 3 4 5 6 7 8 9 10 11 12 13 14 15 16 17 18 19 20 21 22 23 24 25 26 27 28 29 30 31 32 33 34 35 36 37 38 39 40 41 42 43 44 45 46 47 48 49 50
000
ASUS45 KTFX 292010
RWRMT
MONTANA REGIONAL WEATHER ROUNDUP
NATIONAL WEATHER SERVICE GREAT FALLS MT
200 PM MDT WED JUL 29 2015

NOTE: "FAIR" INDICATES FEW OR NO CLOUDS BELOW 12000 FEET WITH NO
SIGNIFICANT WEATHER AND/OR OBSTRUCTIONS TO VISIBILITY.

MTZ001>007-043-292100-
WEST OF THE DIVIDE

CITY           SKY/WX    TMP DP  RH WIND       PRES   REMARKS
KALISPELL      CLEAR     79  41  25 S12G26    30.18F
MISSOULA         N/A     74  38  27 S6        30.25F
BUTTE          SUNNY     69  34  27 NW6       30.34F
MULLAN PASS    SUNNY     66  35  31 VRB6      30.37F
DEER LODGE       N/A     70  41  35 CALM      30.34F
EUREKA           N/A     82  36  18 SW12      30.16S
HAMILTON         N/A     75  39  27 NW3       30.25F
LIBBY            N/A     81  37  21 W7        30.17F
PLAINS           N/A     82  42  24 S2        30.18F
RONAN            N/A     78  41  26 SE1       30.25F
$$

MTZ008-052>055-292100-
SOUTHWEST MONTANA

CITY           SKY/WX    TMP DP  RH WIND       PRES   REMARKS
BOZEMAN        SUNNY     73  39  29 VRB7      30.30F
DILLON         SUNNY     72  41  32 VRB7G17   30.31F
W YELLOWSTONE  SUNNY     66  36  32 SW8       30.41S
TWIN BRIDGES     N/A     72  36  26 E5        30.27F
$$

MTZ009-010-012-014-046-048-049-054-292100-
EAST SLOPES AND CENTRAL MONTANA

CITY           SKY/WX    TMP DP  RH WIND       PRES   REMARKS
CUT BANK       SUNNY     78  36  21 W17G24    30.16F
GREAT FALLS    SUNNY     78  35  21 W13G25    30.18F
MALMSTROM AFB  MOSUNNY   79  36  21 W15G24    30.19S
HELENA         SUNNY     78  35  21 W15       30.24F
CONRAD           N/A     78  44  29 W13       30.18F
$$

MTZ011-013-016-021-045-047-050-051-292100-
NORTH CENTRAL MONTANA

CITY           SKY/WX    TMP DP  RH WIND       PRES   REMARKS
HAVRE          SUNNY     77  45  32 SW16G25   30.12F
LEWISTOWN      SUNNY     75  40  28 VRB3      30.22F
CHINOOK          N/A     79  43  27 SW14G20   30.11F
FORT BENTON      N/A     79  37  22 W10G16    30.15F
$$

MTZ017>020-022>027-061-062-292100-
NORTHEAST MONTANA

CITY           SKY/WX    TMP DP  RH WIND       PRES   REMARKS
GLASGOW        SUNNY    N/A N/A N/A W14       30.11S
JORDAN           N/A     79  42  26 NW7G20    30.15S
SIDNEY         MOSUNNY  N/A N/A N/A W17G28    30.07F
WOLF POINT     MOSUNNY   83  45  26 W15G28    30.09F
MALTA            N/A     80  47  31 SW10      30.08F
PLENTYWOOD       N/A     75  48  38 W18G26    30.05R
POPLAR           N/A     79  48  34 W15G21    30.08F
SCOBEY           N/A     76  48  37 W10       30.08R
$$

MTZ028>42-056>058-292100-
SOUTHCENTRAL AND SOUTHEAST MONTANA

CITY           SKY/WX    TMP DP  RH WIND       PRES   REMARKS
BAKER          SUNNY     80  37  21 W13G29    30.17S
BILLINGS       MOSUNNY   80  33  18 W10G25    30.22F
LIVINGSTON     SUNNY     76  38  25 W13G21    30.27F
MILES CITY     MOSUNNY   82  41  23 W18       30.15F
EKALAKA          N/A     78  35  21 W15       30.17S
FORSYTH          N/A     79  39  24 W8G17     30.17F
LAUREL           N/A     80  36  20 SW13      30.19F
ROUNDUP          N/A     78  35  21 W21       30.10F
$$

REGIONAL REPORTS...DAKOTAS

CITY           SKY/WX    TMP DP  RH WIND       PRES   REMARKS
WILLISTON      MOSUNNY   82  46  28 W22G29    30.05S
MINOT          PTSUNNY   81  50  33 W23G35    29.97R
DICKINSON      MOSUNNY   80  46  30 W22G30    30.10S
BEACH          FAIR      77  41  27 W16G31    30.14S
CROSBY         FAIR      77  48  36 W22G28    30.01S
BISMARCK       PTSUNNY   78  47  33 W22G30    30.05S
GRAND FORKS    PTSUNNY   79  54  41 W22G35    29.81R
FARGO          SUNNY     80  50  34 W28G45    29.88S
BUFFALO SD       N/A     82  37  20 W26G36    30.12S
RAPID CITY     SUNNY     80  41  24 CALM      30.21F
$$

REGIONAL REPORTS...WYOMING/IDAHO/WASHINGTON

CITY           SKY/WX    TMP DP  RH WIND       PRES   REMARKS
GILLETTE       SUNNY     77  31  18 N6        30.26F
SHERIDAN       SUNNY     78  34  20 SW5       30.25F
BUFFALO WY     SUNNY     76  33  21 NE3       30.29F
CODY           SUNNY     75  30  19 SE12      30.28F
YELLOWSTONE LA   N/A     60  37  42 CALM      30.48F
IDAHO FALLS    SUNNY     76  34  21 SW7       30.33F
SALMON         SUNNY     72  43  35 N6        30.27F
BOISE          SUNNY     84  30  14 SE3       30.22F
SPOKANE        MOSUNNY   83  34  17 SW6       30.20F
$$

REGIONAL REPORTS...ALBERTA

CITY           SKY/WX    TMP DP  RH WIND       PRES   REMARKS
EDMONTON       PTSUNNY   73  48  40 W14G21    30.02F
CALGARY        PTSUNNY   72  39  30 NW10      30.11S
LETHBRIDGE     MOSUNNY   81  41  24 W21G30    30.09F
MEDICINE HAT   PTSUNNY   81  43  26 SW15      30.07S
WATERTON GATE    N/A     73  43  33 SW13G21     N/A
CARDSTON         N/A     77  39  25 SW10G18     N/A
MILK RIVER       N/A     79  41  25 W15G25      N/A
ONEFOUR          N/A     75  41  29 SW7         N/A
$$

REGIONAL REPORTS...SASKATCHEWAN

CITY           SKY/WX    TMP DP  RH WIND       PRES   REMARKS
SWIFT CURRENT  MOSUNNY   77  48  36 W14G26    30.07S
REGINA         MOSUNNY   77  52  41 NW23G31   29.99R
SASKATOON      MOSUNNY   77  50  38 NW18G29   29.96R
CYPRESS HILLS    N/A     72  43  35 SW10G20     N/A
VAL MARIE        N/A     79  46  31 W12         N/A
ROCKGLEN         N/A     73  45  35 W15G23      N/A
ASSINIBOIA       N/A     72  48  43 W12         N/A
$$



USA.gov is the U.S. government's official web portal to all federal, state and local government web resources and services.